Year,Month,Day,Hour,Minute,Value (Times are PST for temperature in C)
2012,10,21,00,00,1.60
2012,10,21,00,01,1.70
2012,10,21,00,02,1.70
2012,10,21,00,03,1.70
2012,10,21,00,04,1.70
2012,10,21,00,05,1.70
2012,10,21,00,06,1.70
2012,10,21,00,07,1.70
2012,10,21,00,08,1.70
2012,10,21,00,09,1.70
2012,10,21,00,10,1.70
2012,10,21,00,11,1.70
2012,10,21,00,12,1.70
2012,10,21,00,13,1.70
2012,10,21,00,14,1.70
2012,10,21,00,15,1.80
2012,10,21,00,16,1.80
2012,10,21,00,17,1.70
2012,10,21,00,18,1.70
2012,10,21,00,19,1.70
2012,10,21,00,20,1.70
2012,10,21,00,21,1.70
2012,10,21,00,22,1.70
2012,10,21,00,23,1.70
2012,10,21,00,24,1.60
2012,10,21,00,25,1.60
2012,10,21,00,26,1.60
2012,10,21,00,27,1.50
2012,10,21,00,28,1.50
2012,10,21,00,29,1.40
2012,10,21,00,30,1.30
2012,10,21,00,31,1.30
2012,10,21,00,32,1.30
2012,10,21,00,33,1.30
2012,10,21,00,34,1.30
2012,10,21,00,35,1.30
2012,10,21,00,36,1.30
2012,10,21,00,37,1.30
2012,10,21,00,38,1.30
2012,10,21,00,39,1.30
2012,10,21,00,40,1.30
2012,10,21,00,41,1.30
2012,10,21,00,42,1.30
2012,10,21,00,43,1.30
2012,10,21,00,44,1.30
2012,10,21,00,45,1.30
2012,10,21,00,46,1.30
2012,10,21,00,47,1.30
2012,10,21,00,48,1.30
2012,10,21,00,49,1.30
2012,10,21,00,50,1.30
2012,10,21,00,51,1.40
2012,10,21,00,52,1.40
2012,10,21,00,53,1.50
2012,10,21,00,54,1.60
2012,10,21,00,55,1.60
2012,10,21,00,56,1.60
2012,10,21,00,57,1.60
2012,10,21,00,58,1.60
2012,10,21,00,59,1.50
2012,10,21,01,00,1.50
2012,10,21,01,01,1.50
2012,10,21,01,02,1.40
2012,10,21,01,03,1.40
2012,10,21,01,04,1.40
2012,10,21,01,05,1.40
2012,10,21,01,06,1.50
2012,10,21,01,07,1.50
2012,10,21,01,08,1.50
2012,10,21,01,09,1.50
2012,10,21,01,10,1.50
2012,10,21,01,11,1.50
2012,10,21,01,12,1.40
2012,10,21,01,13,1.40
2012,10,21,01,14,1.30
2012,10,21,01,15,1.30
2012,10,21,01,16,1.30
2012,10,21,01,17,1.40
2012,10,21,01,18,1.40
2012,10,21,01,19,1.40
2012,10,21,01,20,1.40
2012,10,21,01,21,1.50
2012,10,21,01,22,1.50
2012,10,21,01,23,1.50
2012,10,21,01,24,1.50
2012,10,21,01,25,1.50
2012,10,21,01,26,1.50
2012,10,21,01,27,1.50
2012,10,21,01,28,1.60
2012,10,21,01,29,1.60
2012,10,21,01,30,1.50
2012,10,21,01,31,1.50
2012,10,21,01,32,1.50
2012,10,21,01,33,1.50
2012,10,21,01,34,1.50
2012,10,21,01,35,1.50
2012,10,21,01,36,1.50
2012,10,21,01,37,1.50
2012,10,21,01,38,1.50
2012,10,21,01,39,1.40
2012,10,21,01,40,1.40
2012,10,21,01,41,1.40
2012,10,21,01,42,1.40
2012,10,21,01,43,1.40
2012,10,21,01,44,1.40
2012,10,21,01,45,1.40
2012,10,21,01,46,1.40
2012,10,21,01,47,1.40
2012,10,21,01,48,1.40
2012,10,21,01,49,1.40
2012,10,21,01,50,1.40
2012,10,21,01,51,1.40
2012,10,21,01,52,1.40
2012,10,21,01,53,1.40
2012,10,21,01,54,1.40
2012,10,21,01,55,1.40
2012,10,21,01,56,1.50
2012,10,21,01,57,1.50
2012,10,21,01,58,1.50
2012,10,21,01,59,1.50
2012,10,21,02,00,1.50
2012,10,21,02,01,1.50
2012,10,21,02,02,1.50
2012,10,21,02,03,1.60
2012,10,21,02,04,1.60
2012,10,21,02,05,1.60
2012,10,21,02,06,1.60
2012,10,21,02,07,1.60
2012,10,21,02,08,1.60
2012,10,21,02,09,1.60
2012,10,21,02,10,1.60
2012,10,21,02,11,1.60
2012,10,21,02,12,1.60
2012,10,21,02,13,1.70
2012,10,21,02,14,1.70
2012,10,21,02,15,1.70
2012,10,21,02,16,1.70
2012,10,21,02,17,1.70
2012,10,21,02,18,1.70
2012,10,21,02,19,1.70
2012,10,21,02,20,1.80
2012,10,21,02,21,1.80
2012,10,21,02,22,1.80
2012,10,21,02,23,1.80
2012,10,21,02,24,1.90
2012,10,21,02,25,1.90
2012,10,21,02,26,1.90
2012,10,21,02,27,2.00
2012,10,21,02,28,2.00
2012,10,21,02,29,2.00
2012,10,21,02,30,2.10
2012,10,21,02,31,2.10
2012,10,21,02,32,2.10
2012,10,21,02,33,2.10
2012,10,21,02,34,2.10
2012,10,21,02,35,2.20
2012,10,21,02,36,2.20
2012,10,21,02,37,2.20
2012,10,21,02,38,2.20
2012,10,21,02,39,2.20
2012,10,21,02,40,2.20
2012,10,21,02,41,2.20
2012,10,21,02,42,2.20
2012,10,21,02,43,2.20
2012,10,21,02,44,2.20
2012,10,21,02,45,2.20
2012,10,21,02,46,2.20
2012,10,21,02,47,2.20
2012,10,21,02,48,2.20
2012,10,21,02,49,2.20
2012,10,21,02,50,2.20
2012,10,21,02,51,2.20
2012,10,21,02,52,2.20
2012,10,21,02,53,2.20
2012,10,21,02,54,2.20
2012,10,21,02,55,2.20
2012,10,21,02,56,2.20
2012,10,21,02,57,2.20
2012,10,21,02,58,2.20
2012,10,21,02,59,2.20
2012,10,21,03,00,2.20
2012,10,21,03,01,2.30
2012,10,21,03,02,2.30
2012,10,21,03,03,2.30
2012,10,21,03,04,2.30
2012,10,21,03,05,2.30
2012,10,21,03,06,2.30
2012,10,21,03,07,2.30
2012,10,21,03,08,2.30
2012,10,21,03,09,2.30
2012,10,21,03,10,2.30
2012,10,21,03,11,2.40
2012,10,21,03,12,2.40
2012,10,21,03,13,2.40
2012,10,21,03,14,2.40
2012,10,21,03,15,2.50
2012,10,21,03,16,2.50
2012,10,21,03,17,2.50
2012,10,21,03,18,2.50
2012,10,21,03,19,2.50
2012,10,21,03,20,2.50
2012,10,21,03,21,2.50
2012,10,21,03,22,2.60
2012,10,21,03,23,2.60
2012,10,21,03,24,2.60
2012,10,21,03,25,2.60
2012,10,21,03,26,2.60
2012,10,21,03,27,2.50
2012,10,21,03,28,2.50
2012,10,21,03,29,2.50
2012,10,21,03,30,2.50
2012,10,21,03,31,2.50
2012,10,21,03,32,2.50
2012,10,21,03,33,2.50
2012,10,21,03,34,2.50
2012,10,21,03,35,2.50
2012,10,21,03,36,2.50
2012,10,21,03,37,2.50
2012,10,21,03,38,2.50
2012,10,21,03,39,2.50
2012,10,21,03,40,2.50
2012,10,21,03,41,2.50
2012,10,21,03,42,2.50
2012,10,21,03,43,2.50
2012,10,21,03,44,2.50
2012,10,21,03,45,2.50
2012,10,21,03,46,2.50
2012,10,21,03,47,2.50
2012,10,21,03,48,2.50
2012,10,21,03,49,2.60
2012,10,21,03,50,2.60
2012,10,21,03,51,2.60
2012,10,21,03,52,2.60
2012,10,21,03,53,2.60
2012,10,21,03,54,2.60
2012,10,21,03,55,2.60
2012,10,21,03,56,2.60
2012,10,21,03,57,2.60
2012,10,21,03,58,2.60
2012,10,21,03,59,2.60
2012,10,21,04,00,2.60
2012,10,21,04,01,2.60
2012,10,21,04,02,2.60
2012,10,21,04,03,2.60
2012,10,21,04,04,2.60
2012,10,21,04,05,2.60
2012,10,21,04,06,2.60
2012,10,21,04,07,2.60
2012,10,21,04,08,2.60
2012,10,21,04,09,2.60
2012,10,21,04,10,2.60
2012,10,21,04,11,2.60
2012,10,21,04,12,2.60
2012,10,21,04,13,2.60
2012,10,21,04,14,2.60
2012,10,21,04,15,2.60
2012,10,21,04,16,2.60
2012,10,21,04,17,2.60
2012,10,21,04,18,2.60
2012,10,21,04,19,2.60
2012,10,21,04,20,2.60
2012,10,21,04,21,2.60
2012,10,21,04,22,2.60
2012,10,21,04,23,2.60
2012,10,21,04,24,2.60
2012,10,21,04,25,2.60
2012,10,21,04,26,2.60
2012,10,21,04,27,2.60
2012,10,21,04,28,2.60
2012,10,21,04,29,2.60
2012,10,21,04,30,2.60
2012,10,21,04,31,2.60
2012,10,21,04,32,2.60
2012,10,21,04,33,2.60
2012,10,21,04,34,2.60
2012,10,21,04,35,2.60
2012,10,21,04,36,2.60
2012,10,21,04,37,2.60
2012,10,21,04,38,2.60
2012,10,21,04,39,2.60
2012,10,21,04,40,2.60
2012,10,21,04,41,2.60
2012,10,21,04,42,2.60
2012,10,21,04,43,2.60
2012,10,21,04,44,2.60
2012,10,21,04,45,2.60
2012,10,21,04,46,2.60
2012,10,21,04,47,2.60
2012,10,21,04,48,2.60
2012,10,21,04,49,2.60
2012,10,21,04,50,2.50
2012,10,21,04,51,2.50
2012,10,21,04,52,2.50
2012,10,21,04,53,2.50
2012,10,21,04,54,2.50
2012,10,21,04,55,2.40
2012,10,21,04,56,2.40
2012,10,21,04,57,2.40
2012,10,21,04,58,2.40
2012,10,21,04,59,2.40
2012,10,21,05,00,2.40
2012,10,21,05,01,2.30
2012,10,21,05,02,2.30
2012,10,21,05,03,2.30
2012,10,21,05,04,2.30
2012,10,21,05,05,2.30
2012,10,21,05,06,2.30
2012,10,21,05,07,2.30
2012,10,21,05,08,2.30
2012,10,21,05,09,2.20
2012,10,21,05,10,2.20
2012,10,21,05,11,2.10
2012,10,21,05,12,2.10
2012,10,21,05,13,2.10
2012,10,21,05,14,2.10
2012,10,21,05,15,2.10
2012,10,21,05,16,2.10
2012,10,21,05,17,2.10
2012,10,21,05,18,2.10
2012,10,21,05,19,2.10
2012,10,21,05,20,2.10
2012,10,21,05,21,2.10
2012,10,21,05,22,2.10
2012,10,21,05,23,2.10
2012,10,21,05,24,2.10
2012,10,21,05,25,2.10
2012,10,21,05,26,2.10
2012,10,21,05,27,2.10
2012,10,21,05,28,2.10
2012,10,21,05,29,2.10
2012,10,21,05,30,2.00
2012,10,21,05,31,2.00
2012,10,21,05,32,2.00
2012,10,21,05,33,2.00
2012,10,21,05,34,2.00
2012,10,21,05,35,2.00
2012,10,21,05,36,2.00
2012,10,21,05,37,2.00
2012,10,21,05,38,2.10
2012,10,21,05,39,2.00
2012,10,21,05,40,2.00
2012,10,21,05,41,2.00
2012,10,21,05,42,2.00
2012,10,21,05,43,2.00
2012,10,21,05,44,2.00
2012,10,21,05,45,1.90
2012,10,21,05,46,1.90
2012,10,21,05,47,1.90
2012,10,21,05,48,1.90
2012,10,21,05,49,1.90
2012,10,21,05,50,1.90
2012,10,21,05,51,1.90
2012,10,21,05,52,1.80
2012,10,21,05,53,1.80
2012,10,21,05,54,1.80
2012,10,21,05,55,1.90
2012,10,21,05,56,1.90
2012,10,21,05,57,2.00
2012,10,21,05,58,2.00
2012,10,21,05,59,2.10
2012,10,21,06,00,2.10
2012,10,21,06,01,2.10
2012,10,21,06,02,2.10
2012,10,21,06,03,2.10
2012,10,21,06,04,2.10
2012,10,21,06,05,2.10
2012,10,21,06,06,2.10
2012,10,21,06,07,2.10
2012,10,21,06,08,2.10
2012,10,21,06,09,2.00
2012,10,21,06,10,2.00
2012,10,21,06,11,1.90
2012,10,21,06,12,1.90
2012,10,21,06,13,1.90
2012,10,21,06,14,1.90
2012,10,21,06,15,1.90
2012,10,21,06,16,1.80
2012,10,21,06,17,1.80
2012,10,21,06,18,1.80
2012,10,21,06,19,1.80
2012,10,21,06,20,1.80
2012,10,21,06,21,1.70
2012,10,21,06,22,1.70
2012,10,21,06,23,1.70
2012,10,21,06,24,1.70
2012,10,21,06,25,1.70
2012,10,21,06,26,1.70
2012,10,21,06,27,1.70
2012,10,21,06,28,1.70
2012,10,21,06,29,1.60
2012,10,21,06,30,1.60
2012,10,21,06,31,1.60
2012,10,21,06,32,1.60
2012,10,21,06,33,1.60
2012,10,21,06,34,1.60
2012,10,21,06,35,1.60
2012,10,21,06,36,1.60
2012,10,21,06,37,1.60
2012,10,21,06,38,1.60
2012,10,21,06,39,1.60
2012,10,21,06,40,1.70
2012,10,21,06,41,1.60
2012,10,21,06,42,1.70
2012,10,21,06,43,1.60
2012,10,21,06,44,1.60
2012,10,21,06,45,1.60
2012,10,21,06,46,1.50
2012,10,21,06,47,1.50
2012,10,21,06,48,1.40
2012,10,21,06,49,1.30
2012,10,21,06,50,1.30
2012,10,21,06,51,1.30
2012,10,21,06,52,1.30
2012,10,21,06,53,1.30
2012,10,21,06,54,1.30
2012,10,21,06,55,1.30
2012,10,21,06,56,1.30
2012,10,21,06,57,1.30
2012,10,21,06,58,1.30
2012,10,21,06,59,1.30
2012,10,21,07,00,1.30
2012,10,21,07,01,1.30
2012,10,21,07,02,1.30
2012,10,21,07,03,1.30
2012,10,21,07,04,1.30
2012,10,21,07,05,1.30
2012,10,21,07,06,1.30
2012,10,21,07,07,1.30
2012,10,21,07,08,1.30
2012,10,21,07,09,1.30
2012,10,21,07,10,1.30
2012,10,21,07,11,1.30
2012,10,21,07,12,1.30
2012,10,21,07,13,1.30
2012,10,21,07,14,1.30
2012,10,21,07,15,1.30
2012,10,21,07,16,1.30
2012,10,21,07,17,1.30
2012,10,21,07,18,1.30
2012,10,21,07,19,1.30
2012,10,21,07,20,1.30
2012,10,21,07,21,1.30
2012,10,21,07,22,1.30
2012,10,21,07,23,1.30
2012,10,21,07,24,1.30
2012,10,21,07,25,1.30
2012,10,21,07,26,1.30
2012,10,21,07,27,1.30
2012,10,21,07,28,1.30
2012,10,21,07,29,1.30
2012,10,21,07,30,1.30
2012,10,21,07,31,1.30
2012,10,21,07,32,1.30
2012,10,21,07,33,1.30
2012,10,21,07,34,1.30
2012,10,21,07,35,1.30
2012,10,21,07,36,1.30
2012,10,21,07,37,1.30
2012,10,21,07,38,1.30
2012,10,21,07,39,1.30
2012,10,21,07,40,1.30
2012,10,21,07,41,1.30
2012,10,21,07,42,1.30
2012,10,21,07,43,1.30
2012,10,21,07,44,1.30
2012,10,21,07,45,1.30
2012,10,21,07,46,1.30
2012,10,21,07,47,1.40
2012,10,21,07,48,1.40
2012,10,21,07,49,1.40
2012,10,21,07,50,1.40
2012,10,21,07,51,1.50
2012,10,21,07,52,1.50
2012,10,21,07,53,1.50
2012,10,21,07,54,1.60
2012,10,21,07,55,1.60
2012,10,21,07,56,1.60
2012,10,21,07,57,1.60
2012,10,21,07,58,1.60
2012,10,21,07,59,1.60
2012,10,21,08,00,1.60
2012,10,21,08,01,1.60
2012,10,21,08,02,1.70
2012,10,21,08,03,1.70
2012,10,21,08,04,1.70
2012,10,21,08,05,1.70
2012,10,21,08,06,1.70
2012,10,21,08,07,1.70
2012,10,21,08,08,1.70
2012,10,21,08,09,1.70
2012,10,21,08,10,1.70
2012,10,21,08,11,1.70
2012,10,21,08,12,1.70
2012,10,21,08,13,1.70
2012,10,21,08,14,1.70
2012,10,21,08,15,1.70
2012,10,21,08,16,1.70
2012,10,21,08,17,1.70
2012,10,21,08,18,1.70
2012,10,21,08,19,1.80
2012,10,21,08,20,1.80
2012,10,21,08,21,1.80
2012,10,21,08,22,1.80
2012,10,21,08,23,1.70
2012,10,21,08,24,1.70
2012,10,21,08,25,1.70
2012,10,21,08,26,1.60
2012,10,21,08,27,1.60
2012,10,21,08,28,1.60
2012,10,21,08,29,1.60
2012,10,21,08,30,1.60
2012,10,21,08,31,1.60
2012,10,21,08,32,1.60
2012,10,21,08,33,1.60
2012,10,21,08,34,1.60
2012,10,21,08,35,1.70
2012,10,21,08,36,1.70
2012,10,21,08,37,1.70
2012,10,21,08,38,1.70
2012,10,21,08,39,1.70
2012,10,21,08,40,1.70
2012,10,21,08,41,1.70
2012,10,21,08,42,1.70
2012,10,21,08,43,1.70
2012,10,21,08,44,1.70
2012,10,21,08,45,1.70
2012,10,21,08,46,1.70
2012,10,21,08,47,1.70
2012,10,21,08,48,1.70
2012,10,21,08,49,1.70
2012,10,21,08,50,1.70
2012,10,21,08,51,1.70
2012,10,21,08,52,1.80
2012,10,21,08,53,1.80
2012,10,21,08,54,1.80
2012,10,21,08,55,1.90
2012,10,21,08,56,2.00
2012,10,21,08,57,2.00
2012,10,21,08,58,2.10
2012,10,21,08,59,2.10
2012,10,21,09,00,2.20
2012,10,21,09,01,2.20
2012,10,21,09,02,2.20
2012,10,21,09,03,2.30
2012,10,21,09,04,2.30
2012,10,21,09,05,2.20
2012,10,21,09,06,2.20
2012,10,21,09,07,2.20
2012,10,21,09,08,2.20
2012,10,21,09,09,2.20
2012,10,21,09,10,2.30
2012,10,21,09,11,2.30
2012,10,21,09,12,2.40
2012,10,21,09,13,2.40
2012,10,21,09,14,2.50
2012,10,21,09,15,2.60
2012,10,21,09,16,2.70
2012,10,21,09,17,2.70
2012,10,21,09,18,2.80
2012,10,21,09,19,2.90
2012,10,21,09,20,3.00
2012,10,21,09,21,3.10
2012,10,21,09,22,3.20
2012,10,21,09,23,3.20
2012,10,21,09,24,3.20
2012,10,21,09,25,3.10
2012,10,21,09,26,3.10
2012,10,21,09,27,3.20
2012,10,21,09,28,3.20
2012,10,21,09,29,3.30
2012,10,21,09,30,3.30
2012,10,21,09,31,3.40
2012,10,21,09,32,3.40
2012,10,21,09,33,3.40
2012,10,21,09,34,3.50
2012,10,21,09,35,3.60
2012,10,21,09,36,3.60
2012,10,21,09,37,3.70
2012,10,21,09,38,3.70
2012,10,21,09,39,3.70
2012,10,21,09,40,3.80
2012,10,21,09,41,3.80
2012,10,21,09,42,3.90
2012,10,21,09,43,3.90
2012,10,21,09,44,3.90
2012,10,21,09,45,4.00
2012,10,21,09,46,4.00
2012,10,21,09,47,4.10
2012,10,21,09,48,4.10
2012,10,21,09,49,4.10
2012,10,21,09,50,4.20
2012,10,21,09,51,4.30
2012,10,21,09,52,4.30
2012,10,21,09,53,4.40
2012,10,21,09,54,4.50
2012,10,21,09,55,4.50
2012,10,21,09,56,4.50
2012,10,21,09,57,4.60
2012,10,21,09,58,4.60
2012,10,21,09,59,4.70
2012,10,21,10,00,4.80
2012,10,21,10,01,4.80
2012,10,21,10,02,4.90
2012,10,21,10,03,5.00
2012,10,21,10,04,5.10
2012,10,21,10,05,5.10
2012,10,21,10,06,5.20
2012,10,21,10,07,5.20
2012,10,21,10,08,5.30
2012,10,21,10,09,5.40
2012,10,21,10,10,5.40
2012,10,21,10,11,5.40
2012,10,21,10,12,5.40
2012,10,21,10,13,5.40
2012,10,21,10,14,5.40
2012,10,21,10,15,5.30
2012,10,21,10,16,5.30
2012,10,21,10,17,5.20
2012,10,21,10,18,5.10
2012,10,21,10,19,5.10
2012,10,21,10,20,5.10
2012,10,21,10,21,5.00
2012,10,21,10,22,5.00
2012,10,21,10,23,4.90
2012,10,21,10,24,4.90
2012,10,21,10,25,4.90
2012,10,21,10,26,4.90
2012,10,21,10,27,4.90
2012,10,21,10,28,4.90
2012,10,21,10,29,4.90
2012,10,21,10,30,4.90
2012,10,21,10,31,4.90
2012,10,21,10,32,4.90
2012,10,21,10,33,4.90
2012,10,21,10,34,5.00
2012,10,21,10,35,4.90
2012,10,21,10,36,5.00
2012,10,21,10,37,5.00
2012,10,21,10,38,5.00
2012,10,21,10,39,5.00
2012,10,21,10,40,5.00
2012,10,21,10,41,4.90
2012,10,21,10,42,4.90
2012,10,21,10,43,4.90
2012,10,21,10,44,4.90
2012,10,21,10,45,4.90
2012,10,21,10,46,4.80
2012,10,21,10,47,4.80
2012,10,21,10,48,4.80
2012,10,21,10,49,4.80
2012,10,21,10,50,4.80
2012,10,21,10,51,4.80
2012,10,21,10,52,4.80
2012,10,21,10,53,4.80
2012,10,21,10,54,4.80
2012,10,21,10,55,4.90
2012,10,21,10,56,4.90
2012,10,21,10,57,4.90
2012,10,21,10,58,4.90
2012,10,21,10,59,4.90
2012,10,21,11,00,4.90
2012,10,21,11,01,4.90
2012,10,21,11,02,5.00
2012,10,21,11,03,5.10
2012,10,21,11,04,5.10
2012,10,21,11,05,5.20
2012,10,21,11,06,5.30
2012,10,21,11,07,5.30
2012,10,21,11,08,5.40
2012,10,21,11,09,5.50
2012,10,21,11,10,5.50
2012,10,21,11,11,5.60
2012,10,21,11,12,5.70
2012,10,21,11,13,5.70
2012,10,21,11,14,5.80
2012,10,21,11,15,5.80
2012,10,21,11,16,5.90
2012,10,21,11,17,5.90
2012,10,21,11,18,5.90
2012,10,21,11,19,6.00
2012,10,21,11,20,6.00
2012,10,21,11,21,6.10
2012,10,21,11,22,6.10
2012,10,21,11,23,6.10
2012,10,21,11,24,6.10
2012,10,21,11,25,6.10
2012,10,21,11,26,6.10
2012,10,21,11,27,6.10
2012,10,21,11,28,6.10
2012,10,21,11,29,6.10
2012,10,21,11,30,6.10
2012,10,21,11,31,6.20
2012,10,21,11,32,6.20
2012,10,21,11,33,6.20
2012,10,21,11,34,6.30
2012,10,21,11,35,6.30
2012,10,21,11,36,6.40
2012,10,21,11,37,6.50
2012,10,21,11,38,6.60
2012,10,21,11,39,6.70
2012,10,21,11,40,6.70
2012,10,21,11,41,6.80
2012,10,21,11,42,7.00
2012,10,21,11,43,7.10
2012,10,21,11,44,7.20
2012,10,21,11,45,7.30
2012,10,21,11,46,7.30
2012,10,21,11,47,7.40
2012,10,21,11,48,7.40
2012,10,21,11,49,7.40
2012,10,21,11,50,7.40
2012,10,21,11,51,7.40
2012,10,21,11,52,7.50
2012,10,21,11,53,7.50
2012,10,21,11,54,7.50
2012,10,21,11,55,7.50
2012,10,21,11,56,7.40
2012,10,21,11,57,7.40
2012,10,21,11,58,7.30
2012,10,21,11,59,7.30
2012,10,21,12,00,7.30
2012,10,21,12,01,7.30
2012,10,21,12,02,7.30
2012,10,21,12,03,7.40
2012,10,21,12,04,7.40
2012,10,21,12,05,7.40
2012,10,21,12,06,7.30
2012,10,21,12,07,7.30
2012,10,21,12,08,7.40
2012,10,21,12,09,7.40
2012,10,21,12,10,7.50
2012,10,21,12,11,7.60
2012,10,21,12,12,7.60
2012,10,21,12,13,7.70
2012,10,21,12,14,7.70
2012,10,21,12,15,7.70
2012,10,21,12,16,7.70
2012,10,21,12,17,7.70
2012,10,21,12,18,7.70
2012,10,21,12,19,7.70
2012,10,21,12,20,7.70
2012,10,21,12,21,7.70
2012,10,21,12,22,7.70
2012,10,21,12,23,7.60
2012,10,21,12,24,7.60
2012,10,21,12,25,7.60
2012,10,21,12,26,7.60
2012,10,21,12,27,7.60
2012,10,21,12,28,7.50
2012,10,21,12,29,7.60
2012,10,21,12,30,7.60
2012,10,21,12,31,7.60
2012,10,21,12,32,7.60
2012,10,21,12,33,7.60
2012,10,21,12,34,7.60
2012,10,21,12,35,7.60
2012,10,21,12,36,7.60
2012,10,21,12,37,7.50
2012,10,21,12,38,7.50
2012,10,21,12,39,7.40
2012,10,21,12,40,7.40
2012,10,21,12,41,7.40
2012,10,21,12,42,7.40
2012,10,21,12,43,7.30
2012,10,21,12,44,7.40
2012,10,21,12,45,7.40
2012,10,21,12,46,7.40
2012,10,21,12,47,7.50
2012,10,21,12,48,7.50
2012,10,21,12,49,7.60
2012,10,21,12,50,7.60
2012,10,21,12,51,7.70
2012,10,21,12,52,7.80
2012,10,21,12,53,7.80
2012,10,21,12,54,7.90
2012,10,21,12,55,7.90
2012,10,21,12,56,8.00
2012,10,21,12,57,8.00
2012,10,21,12,58,8.10
2012,10,21,12,59,8.00
2012,10,21,13,00,8.00
2012,10,21,13,01,8.00
2012,10,21,13,02,7.90
2012,10,21,13,03,7.90
2012,10,21,13,04,7.90
2012,10,21,13,05,7.80
2012,10,21,13,06,7.80
2012,10,21,13,07,7.80
2012,10,21,13,08,7.80
2012,10,21,13,09,7.80
2012,10,21,13,10,7.80
2012,10,21,13,11,7.80
2012,10,21,13,12,7.80
2012,10,21,13,13,7.90
2012,10,21,13,14,8.00
2012,10,21,13,15,8.10
2012,10,21,13,16,8.20
2012,10,21,13,17,8.20
2012,10,21,13,18,8.20
2012,10,21,13,19,8.20
2012,10,21,13,20,8.10
2012,10,21,13,21,7.90
2012,10,21,13,22,7.80
2012,10,21,13,23,7.70
2012,10,21,13,24,7.60
2012,10,21,13,25,7.50
2012,10,21,13,26,7.40
2012,10,21,13,27,7.30
2012,10,21,13,28,7.30
2012,10,21,13,29,7.20
2012,10,21,13,30,7.20
2012,10,21,13,31,7.10
2012,10,21,13,32,7.00
2012,10,21,13,33,7.00
2012,10,21,13,34,6.90
2012,10,21,13,35,6.90
2012,10,21,13,36,6.80
2012,10,21,13,37,6.80
2012,10,21,13,38,6.80
2012,10,21,13,39,6.70
2012,10,21,13,40,6.70
2012,10,21,13,41,6.70
2012,10,21,13,42,6.70
2012,10,21,13,43,6.70
2012,10,21,13,44,6.70
2012,10,21,13,45,6.70
2012,10,21,13,46,6.60
2012,10,21,13,47,6.60
2012,10,21,13,48,6.70
2012,10,21,13,49,6.70
2012,10,21,13,50,6.70
2012,10,21,13,51,6.70
2012,10,21,13,52,6.70
2012,10,21,13,53,6.70
2012,10,21,13,54,6.70
2012,10,21,13,55,6.70
2012,10,21,13,56,6.70
2012,10,21,13,57,6.70
2012,10,21,13,58,6.70
2012,10,21,13,59,6.70
2012,10,21,14,00,6.70
2012,10,21,14,01,6.70
2012,10,21,14,02,6.70
2012,10,21,14,03,6.70
2012,10,21,14,04,6.70
2012,10,21,14,05,6.70
2012,10,21,14,06,6.70
2012,10,21,14,07,6.70
2012,10,21,14,08,6.70
2012,10,21,14,09,6.70
2012,10,21,14,10,6.70
2012,10,21,14,11,6.70
2012,10,21,14,12,6.80
2012,10,21,14,13,6.80
2012,10,21,14,14,6.80
2012,10,21,14,15,6.80
2012,10,21,14,16,6.80
2012,10,21,14,17,6.80
2012,10,21,14,18,6.70
2012,10,21,14,19,6.80
2012,10,21,14,20,6.80
2012,10,21,14,21,6.80
2012,10,21,14,22,6.80
2012,10,21,14,23,6.80
2012,10,21,14,24,6.80
2012,10,21,14,25,6.70
2012,10,21,14,26,6.70
2012,10,21,14,27,6.70
2012,10,21,14,28,6.70
2012,10,21,14,29,6.70
2012,10,21,14,30,6.70
2012,10,21,14,31,6.70
2012,10,21,14,32,6.70
2012,10,21,14,33,6.70
2012,10,21,14,34,6.70
2012,10,21,14,35,6.70
2012,10,21,14,36,6.80
2012,10,21,14,37,6.70
2012,10,21,14,38,6.80
2012,10,21,14,39,6.80
2012,10,21,14,40,6.80
2012,10,21,14,41,6.80
2012,10,21,14,42,6.90
2012,10,21,14,43,6.90
2012,10,21,14,44,6.90
2012,10,21,14,45,6.90
2012,10,21,14,46,6.90
2012,10,21,14,47,6.90
2012,10,21,14,48,6.90
2012,10,21,14,49,6.90
2012,10,21,14,50,6.90
2012,10,21,14,51,6.90
2012,10,21,14,52,6.90
2012,10,21,14,53,6.90
2012,10,21,14,54,7.00
2012,10,21,14,55,7.00
2012,10,21,14,56,7.00
2012,10,21,14,57,7.00
2012,10,21,14,58,7.10
2012,10,21,14,59,7.10
2012,10,21,15,00,7.10
2012,10,21,15,01,7.10
2012,10,21,15,02,7.10
2012,10,21,15,03,7.10
2012,10,21,15,04,7.10
2012,10,21,15,05,7.10
2012,10,21,15,06,7.10
2012,10,21,15,07,7.10
2012,10,21,15,08,7.00
2012,10,21,15,09,7.00
2012,10,21,15,10,7.00
2012,10,21,15,11,7.00
2012,10,21,15,12,6.90
2012,10,21,15,13,6.90
2012,10,21,15,14,6.90
2012,10,21,15,15,6.90
2012,10,21,15,16,6.90
2012,10,21,15,17,6.90
2012,10,21,15,18,6.80
2012,10,21,15,19,6.80
2012,10,21,15,20,6.80
2012,10,21,15,21,6.80
2012,10,21,15,22,6.80
2012,10,21,15,23,6.80
2012,10,21,15,24,6.80
2012,10,21,15,25,6.80
2012,10,21,15,26,6.80
2012,10,21,15,27,6.80
2012,10,21,15,28,6.70
2012,10,21,15,29,6.70
2012,10,21,15,30,6.70
2012,10,21,15,31,6.80
2012,10,21,15,32,6.80
2012,10,21,15,33,6.80
2012,10,21,15,34,6.70
2012,10,21,15,35,6.70
2012,10,21,15,36,6.80
2012,10,21,15,37,6.80
2012,10,21,15,38,6.80
2012,10,21,15,39,6.80
2012,10,21,15,40,6.80
2012,10,21,15,41,6.80
2012,10,21,15,42,6.80
2012,10,21,15,43,6.80
2012,10,21,15,44,6.80
2012,10,21,15,45,6.80
2012,10,21,15,46,6.80
2012,10,21,15,47,6.70
2012,10,21,15,48,6.70
2012,10,21,15,49,6.70
2012,10,21,15,50,6.70
2012,10,21,15,51,6.70
2012,10,21,15,52,6.70
2012,10,21,15,53,6.70
2012,10,21,15,54,6.70
2012,10,21,15,55,6.70
2012,10,21,15,56,6.70
2012,10,21,15,57,6.70
2012,10,21,15,58,6.70
2012,10,21,15,59,6.70
2012,10,21,16,00,6.70
2012,10,21,16,01,6.70
2012,10,21,16,02,6.70
2012,10,21,16,03,6.70
2012,10,21,16,04,6.70
2012,10,21,16,05,6.80
2012,10,21,16,06,6.80
2012,10,21,16,07,6.80
2012,10,21,16,08,6.80
2012,10,21,16,09,6.80
2012,10,21,16,10,6.80
2012,10,21,16,11,6.90
2012,10,21,16,12,6.90
2012,10,21,16,13,6.90
2012,10,21,16,14,7.00
2012,10,21,16,15,7.00
2012,10,21,16,16,7.10
2012,10,21,16,17,7.10
2012,10,21,16,18,7.20
2012,10,21,16,19,7.20
2012,10,21,16,20,7.20
2012,10,21,16,21,7.20
2012,10,21,16,22,7.20
2012,10,21,16,23,7.20
2012,10,21,16,24,7.20
2012,10,21,16,25,7.20
2012,10,21,16,26,7.20
2012,10,21,16,27,7.10
2012,10,21,16,28,7.10
2012,10,21,16,29,7.00
2012,10,21,16,30,6.90
2012,10,21,16,31,6.80
2012,10,21,16,32,6.70
2012,10,21,16,33,6.60
2012,10,21,16,34,6.50
2012,10,21,16,35,6.40
2012,10,21,16,36,6.30
2012,10,21,16,37,6.30
2012,10,21,16,38,6.30
2012,10,21,16,39,6.20
2012,10,21,16,40,6.20
2012,10,21,16,41,6.20
2012,10,21,16,42,6.20
2012,10,21,16,43,6.10
2012,10,21,16,44,6.10
2012,10,21,16,45,6.10
2012,10,21,16,46,6.10
2012,10,21,16,47,6.10
2012,10,21,16,48,6.10
2012,10,21,16,49,6.10
2012,10,21,16,50,6.10
2012,10,21,16,51,6.10
2012,10,21,16,52,6.10
2012,10,21,16,53,6.10
2012,10,21,16,54,6.10
2012,10,21,16,55,6.10
2012,10,21,16,56,6.10
2012,10,21,16,57,6.10
2012,10,21,16,58,6.10
2012,10,21,16,59,6.10
2012,10,21,17,00,6.10
2012,10,21,17,01,6.10
2012,10,21,17,02,6.10
2012,10,21,17,03,6.10
2012,10,21,17,04,6.10
2012,10,21,17,05,6.10
2012,10,21,17,06,6.10
2012,10,21,17,07,6.10
2012,10,21,17,08,6.10
2012,10,21,17,09,6.10
2012,10,21,17,10,6.10
2012,10,21,17,11,6.10
2012,10,21,17,12,6.10
2012,10,21,17,13,6.10
2012,10,21,17,14,6.20
2012,10,21,17,15,6.20
2012,10,21,17,16,6.20
2012,10,21,17,17,6.20
2012,10,21,17,18,6.20
2012,10,21,17,19,6.20
2012,10,21,17,20,6.20
2012,10,21,17,21,6.20
2012,10,21,17,22,6.20
2012,10,21,17,23,6.20
2012,10,21,17,24,6.30
2012,10,21,17,25,6.30
2012,10,21,17,26,6.30
2012,10,21,17,27,6.30
2012,10,21,17,28,6.30
2012,10,21,17,29,6.30
2012,10,21,17,30,6.30
2012,10,21,17,31,6.40
2012,10,21,17,32,6.40
2012,10,21,17,33,6.40
2012,10,21,17,34,6.40
2012,10,21,17,35,6.40
2012,10,21,17,36,6.40
2012,10,21,17,37,6.40
2012,10,21,17,38,6.40
2012,10,21,17,39,6.40
2012,10,21,17,40,6.40
2012,10,21,17,41,6.40
2012,10,21,17,42,6.40
2012,10,21,17,43,6.40
2012,10,21,17,44,6.40
2012,10,21,17,45,6.40
2012,10,21,17,46,6.40
2012,10,21,17,47,6.40
2012,10,21,17,48,6.40
2012,10,21,17,49,6.40
2012,10,21,17,50,6.40
2012,10,21,17,51,6.40
2012,10,21,17,52,6.40
2012,10,21,17,53,6.40
2012,10,21,17,54,6.40
2012,10,21,17,55,6.40
2012,10,21,17,56,6.40
2012,10,21,17,57,6.40
2012,10,21,17,58,6.40
2012,10,21,17,59,6.40
2012,10,21,18,00,6.40
2012,10,21,18,01,6.30
2012,10,21,18,02,6.30
2012,10,21,18,03,6.30
2012,10,21,18,04,6.30
2012,10,21,18,05,6.30
2012,10,21,18,06,6.30